Temperature
14 15 15 16 16 17 19 21 22 22 22 21 21 21 22 21 20 18 16 16 16 17 16 17 17 17 17 17 17 17 17 17 17 17 17 17 17 17 17 17 17 16 16 16 16 16 16 16 16
14 14 15 16 16 18 20 21 21 21 20 20 20 20 21 21 19 17 16 16 16 16 16 16 17 16 16 17 17 17 17 17 17 17 17 17 17 17 17 17 16 16 16 16 16 16 16 16 16
14 14 16 16 17 19 20 21 20 20 19 20 20 20 20 18 17 16 15 16 16 16 16 16 16 16 16 16 16 16 16 16 16 16 16 16 16 16 16 16 16 16 16 16 16 16 16 16 16
14 15 16 16 18 20 20 19 19 19 19 19 20 20 18 17 16 15 15 15 16 16 16 16 16 16 16 16 16 16 16 16 16 16 16 16 16 16 16 16 16 16 16 16 16 16 16 16 16
14 15 16 16 18 19 19 19 19 19 19 19 19 19 17 16 15 15 15 15 15 16 16 16 16 16 16 16 16 16 16 16 16 16 16 16 16 16 16 16 16 16 15 15 16 16 16 16 16
14 16 16 16 18 19 18 18 18 19 19 19 18 18 16 15 15 15 15 15 15 15 15 16 16 16 16 16 16 16 16 16 16 16 16 16 16 16 16 16 16 16 15 15 15 15 16 16 15
14 15 16 18 18 18 18 17 18 18 18 18 17 17 16 15 14 14 14 14 15 15 15 15 15 15 16 16 16 16 16 16 16 16 16 16 16 16 16 16 16 15 15 15 15 15 15 15 15
14 15 16 17 18 17 17 16 16 16 17 16 16 16 15 14 14 14 14 14 14 14 14 15 15 15 15 15 15 16 16 16 16 16 16 16 16 16 16 16 15 15 15 15 15 15 15 15 15
13 14 15 17 17 16 16 16 15 15 15 15 15 15 14 14 13 13 13 13 14 14 14 14 14 15 15 15 15 15 15 15 15 15 15 15 15 15 15 15 15 15 15 15 15 15 15 15 15
13 13 14 15 15 15 15 15 14 15 15 15 15 14 14 13 13 13 12 13 13 13 13 14 14 14 14 15 15 15 15 15 15 15 15 15 15 15 15 15 15 15 15 15 15 15 15 15 15
13 13 14 14 13 13 14 14 14 14 14 14 14 13 13 13 12 12 12 12 12 12 13 13 13 14 14 14 14 14 15 15 15 15 15 15 15 15 15 15 15 15 15 15 15 14 14 15 15
13 13 13 13 12 12 12 13 13 13 13 13 13 12 12 12 12 12 11 11 12 12 12 13 13 13 13 14 14 14 14 14 14 15 14 14 15 15 15 15 15 15 15 15 15 15 14 14 14
12 12 12 11 11 11 11 12 12 12 12 12 12 12 11 11 11 11 11 11 11 11 12 12 13 13 13 13 13 14 14 14 14 14 14 14 14 14 14 14 14 14 15 15 15 15 14 14 14
12 12 12 11 11 11 11 12 12 12 12 12 12 12 11 11 11 11 10 10 11 11 11 11 12 12 12 13 13 13 13 14 14 14 14 14 14 14 14 14 14 14 14 14 14 14 14 14 14
11 11 11 11 11 11 11 11 12 12 12 12 12 12 11 11 10 10 10 10 10 10 10 11 11 11 12 12 12 13 13 13 13 13 14 14 14 14 14 14 14 14 14 14 14 14 14 14 13
11 11 10 11 11 11 10 11 12 12 12 12 12 11 11 11 10 10 9 9 9 10 10 10 10 11 11 11 12 12 12 12 13 13 13 13 13 13 14 14 14 14 14 14 13 14 14 13 13
10 10 11 11 11 11 11 11 12 12 12 12 11 11 10 10 9 9 9 9 9 9 9 10 10 10 11 11 11 11 11 12 12 12 13 13 13 13 13 13 13 13 13 13 13 13 13 13 13
10 11 12 11 11 11 10 11 12 12 12 11 11 10 10 9 9 8 8 8 8 8 9 9 9 10 10 10 10 11 11 11 12 12 12 12 12 13 13 13 13 13 13 13 13 13 13 13 13
11 11 11 11 12 11 10 11 12 12 12 11 10 10 9 9 8 8 8 8 8 8 8 8 9 9 9 9 10 10 11 11 11 11 12 12 12 12 12 12 13 13 13 13 13 13 13 12 12
11 11 11 11 12 11 10 11 11 12 11 10 10 9 8 8 7 7 7 7 7 7 7 8 8 8 8 9 9 9 10 10 10 11 11 11 11 11 12 12 12 12 12 12 12 12 12 12 12
10 10 10 10 10 11 10 10 11 11 11 10 9 8 7 7 6 6 6 6 7 7 7 7 7 8 8 8 9 9 9 10 10 10 10 11 11 11 11 11 11 11 12 12 12 12 11 11 12
9 10 10 10 9 8 10 8 10 11 10 10 9 7 7 6 6 6 6 6 6 6 6 7 7 7 7 8 8 8 9 9 9 9 10 10 10 10 11 11 11 11 11 11 11 11 11 11 11
9 10 9 9 8 8 9 8 9 11 10 9 8 7 6 6 5 5 5 5 5 6 6 6 6 7 7 7 7 8 8 8 8 9 9 9 9 9 10 10 10 10 10 11 10 11 11 10 10
9 9 9 9 8 7 9 8 8 9 9 9 8 7 6 5 5 5 5 5 5 5 6 6 6 6 6 7 7 7 7 8 8 8 8 8 8 9 9 9 9 9 10 10 10 10 10 10 10
9 8 8 8 7 8 9 8 8 9 9 8 7 6 6 5 5 4 4 5 5 5 5 6 6 6 6 6 6 7 7 7 7 7 7 8 8 8 8 8 8 9 9 9 9 9 9 9 9
9 8 8 8 9 9 9 8 9 9 9 8 7 6 5 5 5 4 4 4 4 5 5 5 5 5 5 6 6 6 6 6 6 6 7 7 7 7 7 7 8 8 8 8 8 8 9 9 9
9 8 9 7 8 8 9 10 9 9 8 7 7 6 5 5 5 4 4 4 4 4 4 4 5 5 5 5 5 5 6 6 6 6 6 6 6 6 7 7 7 7 7 7 7 8 8 8 8
9 9 8 8 8 8 10 10 9 8 7 7 7 6 6 5 5 4 4 4 4 4 4 4 4 4 4 5 5 5 5 5 5 5 5 5 5 6 6 6 6 6 6 7 7 7 7 7 7
8 8 8 8 8 8 8 9 10 8 8 7 7 6 6 5 5 5 4 4 4 4 4 4 4 4 4 4 4 4 4 4 4 5 5 5 5 5 5 5 5 5 6 6 6 6 6 6 6
9 9 9 8 8 9 8 8 10 9 8 8 7 7 6 6 5 5 4 4 4 4 4 4 4 4 4 4 4 4 4 4 4 4 4 4 4 4 4 4 4 5 5 5 5 5 5 5 5
Wind_Speed
12 13 8 3 3 5 7 3 3 4 3 6 7 5 6 6 6 7 5 9 8 4 6 8 7 6 7 8 8 9 10 10 10 10 10 10 9 9 9 9 9 9 9 9 10 10 10 10 10
12 7 5 4 4 6 5 5 4 6 7 5 3 2 3 5 7 7 6 8 8 5 5 6 7 5 6 7 8 9 9 10 10 10 10 10 10 9 9 9 9 9 9 10 10 11 11 10 10
10 7 4 4 5 4 1 5 8 9 8 2 1 1 3 5 7 5 7 9 7 6 6 7 7 5 5 6 7 8 9 9 9 10 10 10 10 10 10 10 10 9 9 10 11 12 12 11 10
5 3 4 5 9 2 3 7 8 7 5 1 1 2 5 7 5 7 9 10 8 7 7 7 5 4 4 4 6 8 9 9 9 10 10 10 10 10 10 10 10 10 10 11 12 12 12 11 10
4 4 5 6 7 1 6 8 4 3 5 3 1 2 5 6 9 9 10 10 8 7 7 4 3 3 3 4 6 8 9 10 9 10 10 11 11 11 11 10 10 11 11 12 13 13 12 11 10
3 4 5 8 6 4 5 5 2 0 3 4 1 2 3 7 9 8 9 9 8 7 7 5 1 2 4 5 6 7 9 10 10 11 11 11 11 11 11 11 11 12 13 14 14 13 13 12 11
4 4 6 6 5 5 5 3 2 2 1 3 3 2 3 8 8 7 8 7 7 7 6 6 4 2 4 6 7 7 8 10 11 12 12 12 12 13 12 12 13 13 14 15 15 14 13 12 11
4 4 5 4 4 3 5 4 4 5 3 4 3 3 3 6 7 7 7 6 6 6 5 5 6 5 4 5 8 9 9 10 12 13 13 13 13 13 14 14 14 15 16 16 16 15 14 13 12
4 3 3 1 1 5 6 3 3 2 3 1 2 2 4 6 7 7 6 6 6 7 6 5 5 6 6 6 7 8 10 11 12 13 15 14 13 13 14 16 16 17 17 17 17 16 15 14 13
3 3 1 5 7 5 5 4 3 2 3 2 2 3 4 6 7 7 7 7 7 8 7 6 6 6 7 7 4 6 8 9 11 11 13 13 13 13 13 16 19 19 18 18 18 17 16 14 11
2 1 3 6 8 6 4 3 2 4 2 3 5 6 7 7 6 6 6 6 7 7 7 7 6 6 6 5 4 4 5 5 8 10 11 11 10 9 9 8 12 15 15 14 15 15 13 13 11
2 1 3 4 5 4 3 2 3 3 4 6 7 7 8 8 7 6 7 7 7 7 7 7 6 6 6 5 4 4 3 3 3 7 9 6 4 4 4 5 8 10 11 10 10 10 12 13 14
3 3 3 3 1 1 3 4 4 5 5 5 6 5 6 7 7 6 6 7 7 7 7 7 7 7 6 5 4 4 3 3 4 5 7 6 4 5 4 4 6 8 10 9 8 9 10 10 11
3 4 2 2 2 2 4 5 4 4 3 4 4 5 5 5 6 6 7 7 8 8 7 7 7 6 6 5 5 5 4 4 4 4 6 7 5 4 5 5 5 7 9 10 9 8 8 7 6
3 3 4 4 3 1 3 6 6 3 3 5 5 5 4 4 5 6 6 7 7 8 8 7 7 7 7 6 6 5 4 4 3 4 7 7 6 5 5 5 5 6 9 9 7 7 6 6 6
4 4 4 4 4 3 3 3 3 1 2 4 4 5 4 4 5 6 6 7 7 8 8 8 8 7 6 6 6 4 4 3 3 4 5 6 6 6 4 4 5 5 6 5 6 6 6 6 5
5 4 4 5 5 2 4 4 1 1 2 4 4 5 5 5 6 6 7 7 7 7 8 8 7 7 7 7 5 5 4 4 4 4 4 5 5 6 4 4 4 4 4 4 6 5 5 5 5
3 3 2 3 4 2 5 7 5 2 2 3 4 4 5 5 6 8 8 7 7 7 7 8 7 6 7 5 5 4 4 3 3 3 3 4 3 3 3 3 5 5 5 5 5 6 5 4 5
2 1 1 1 2 2 7 8 7 3 2 2 3 4 5 6 7 7 8 8 8 8 8 8 8 7 5 4 4 4 3 3 2 2 2 3 3 2 2 3 4 4 5 6 6 5 6 5 4
1 1 0 1 1 3 7 10 7 3 2 1 2 4 6 7 8 9 8 8 8 8 8 8 8 7 6 4 4 3 3 2 1 1 2 3 3 2 2 3 3 4 4 5 6 5 5 5 5
1 1 2 2 5 6 6 7 5 5 4 2 2 4 6 7 8 9 9 9 8 8 8 8 8 8 7 5 3 3 2 2 2 3 3 3 3 3 3 3 2 3 3 4 5 6 7 6 6
1 3 2 3 3 3 3 4 4 6 5 2 3 4 4 5 7 8 8 8 8 8 7 8 8 8 8 6 4 3 2 2 2 2 3 3 4 4 4 4 3 2 2 3 4 5 5 5 6
1 3 3 3 3 4 4 4 5 4 4 1 2 3 3 4 5 7 7 8 7 8 8 7 7 8 8 7 6 3 3 2 2 3 4 4 4 5 6 5 3 3 2 2 2 3 3 4 5
2 3 5 4 2 4 5 5 4 2 2 1 2 2 3 4 5 6 7 7 7 8 7 7 7 8 8 8 7 6 5 4 5 5 4 4 4 5 6 6 4 4 3 3 2 3 4 4 5
2 2 1 2 3 5 4 4 4 2 4 2 2 1 2 3 4 5 6 7 8 8 8 8 8 8 8 7 7 6 5 5 5 4 4 5 5 5 6 6 4 4 4 4 3 3 3 4 5
2 2 2 2 2 1 2 4 2 5 5 4 3 1 1 2 2 3 4 5 6 7 8 8 8 7 8 7 7 6 6 4 4 5 5 5 5 5 6 6 5 5 5 5 4 3 4 3 4
1 1 1 2 4 3 4 4 3 5 3 2 2 1 0 0 1 2 3 3 4 6 7 7 7 8 9 8 8 7 8 7 6 6 6 5 5 6 7 7 6 6 6 5 5 4 4 4 3
2 2 1 2 2 4 4 4 3 4 4 3 3 2 2 1 1 1 1 2 3 4 5 6 7 7 7 8 7 7 8 7 7 7 7 7 6 7 7 8 8 7 7 7 6 5 5 5 5
4 3 3 3 3 3 4 2 2 4 4 4 3 3 2 2 1 1 1 2 2 3 4 5 6 6 7 7 7 7 7 7 7 7 7 6 6 7 8 8 8 8 9 8 7 7 7 7 6
3 4 4 2 3 3 3 4 2 4 4 4 3 2 2 3 2 2 1 1 2 2 3 4 4 5 6 6 7 7 7 7 7 7 7 7 7 8 8 7 8 8 8 8 9 9 8 7 7
Wind_Direction
285 256 242 235 227 229 233 224 113 99 65 40 28 4 352 28 36 82 79 19 358 25 88 128 133 143 153 157 160 164 164 165 167 168 171 171 169 169 169 168 166 165 163 157 149 142 131 125 122
284 244 232 230 234 228 219 189 134 92 69 55 45 328 332 58 60 78 45 4 352 25 68 113 127 143 155 163 166 172 172 173 177 177 179 178 178 181 182 181 176 175 170 161 151 141 135 132 129
271 245 225 224 228 242 99 100 97 84 81 73 114 18 24 36 43 51 16 354 357 21 46 103 129 141 157 171 177 181 182 181 184 185 186 186 187 191 191 190 184 182 172 161 152 147 143 141 140
236 225 242 241 235 213 79 72 81 99 105 70 8 106 84 52 43 30 11 2 6 17 32 101 133 151 169 180 189 192 194 192 191 191 193 193 195 199 199 195 189 186 176 167 159 154 151 150 150
245 230 221 227 234 143 68 71 68 127 133 126 334 56 86 78 59 28 13 4 5 12 14 56 121 169 195 203 203 204 206 206 203 201 200 201 203 206 205 199 193 187 181 172 167 161 159 159 160
232 239 227 218 201 143 95 69 60 353 104 98 26 341 87 82 51 24 9 2 1 2 4 12 36 206 216 222 219 213 214 216 213 210 208 208 210 211 209 203 196 189 185 179 175 170 168 169 171
244 239 244 225 184 146 108 79 51 339 75 66 21 329 109 64 44 26 7 358 355 356 358 355 343 304 245 234 231 223 220 222 220 215 214 213 214 214 212 207 200 194 190 185 182 177 177 177 178
289 276 254 247 183 124 84 80 47 353 5 37 17 338 56 35 23 17 1 353 348 349 354 350 339 329 302 254 239 230 227 225 224 223 221 219 219 218 216 211 205 198 193 189 185 185 184 184 182
283 262 235 251 110 104 97 103 74 11 314 355 33 12 10 13 9 2 354 348 347 348 346 340 339 338 321 287 249 230 231 230 226 226 226 222 221 219 216 213 206 200 195 192 189 189 188 186 186
249 247 27 31 35 77 83 62 34 302 262 286 333 348 0 5 358 349 342 337 336 336 335 337 337 334 323 308 285 244 236 230 224 226 221 216 219 218 217 212 204 200 197 195 193 192 190 186 189
227 252 88 49 39 41 52 25 346 312 297 340 347 348 354 351 343 335 329 326 322 323 325 329 329 322 315 309 294 262 251 237 228 233 225 212 214 214 214 195 192 195 196 196 198 192 193 195 197
183 76 64 71 48 22 357 336 312 283 301 345 347 343 339 331 328 324 321 316 313 311 312 318 322 311 304 302 297 280 262 245 237 235 236 217 207 206 201 186 182 187 192 192 190 191 200 205 208
179 132 100 86 81 303 289 276 277 277 300 316 316 316 312 312 316 317 318 316 313 307 305 308 306 301 301 297 288 284 266 256 249 243 239 227 209 212 209 198 188 190 192 191 193 196 202 206 211
137 143 158 169 210 240 271 269 257 260 291 292 293 292 294 309 319 322 320 314 310 307 303 302 300 296 295 291 282 273 269 265 257 251 242 230 212 208 206 205 200 197 198 198 197 199 204 208 209
128 165 179 190 205 187 283 256 219 239 275 289 297 303 316 320 319 318 318 314 311 309 306 302 296 289 287 285 280 277 265 257 251 248 246 237 220 212 210 207 208 204 199 197 196 201 204 210 211
185 200 188 162 183 175 250 261 143 103 291 303 313 325 331 331 336 337 335 329 325 319 315 311 307 305 297 289 283 282 279 266 257 259 258 248 231 217 209 212 215 208 198 195 195 197 200 207 210
195 210 171 149 167 183 239 269 220 135 313 318 329 333 336 341 348 348 344 336 329 323 318 313 308 307 305 298 288 282 276 265 265 261 260 261 247 226 212 213 214 202 197 201 203 201 197 201 206
175 192 161 158 151 218 251 264 269 250 281 305 319 335 342 345 355 356 353 344 334 328 324 321 317 313 308 302 293 288 275 268 263 262 265 275 273 250 223 214 214 208 202 203 202 203 200 200 199
31 71 161 103 103 270 258 267 269 241 242 309 344 352 350 355 2 360 356 356 353 348 341 332 325 320 318 314 305 287 278 277 281 277 292 299 302 296 258 241 222 218 211 209 207 203 205 210 190
0 297 315 68 81 283 277 275 261 200 179 64 352 354 3 360 356 357 359 358 355 348 343 338 333 328 325 316 301 284 277 272 287 312 317 318 318 318 293 261 238 222 216 215 212 208 208 211 190
332 344 11 339 315 264 273 279 218 169 160 155 69 37 19 3 355 355 356 357 355 350 344 341 338 335 328 318 317 325 331 338 355 359 351 348 353 355 351 321 286 250 223 222 218 209 211 216 208
32 38 341 304 316 300 297 293 249 186 179 157 77 44 16 2 358 355 353 351 352 347 342 342 344 347 349 348 356 1 355 347 339 341 348 353 6 9 5 347 335 304 271 248 237 225 223 218 223
17 354 300 283 282 289 242 239 270 174 196 167 85 54 18 6 3 356 352 349 351 350 349 348 353 359 2 4 7 3 359 353 357 2 8 8 10 13 13 2 355 342 325 300 272 259 245 233 229
323 288 256 238 256 262 221 213 275 179 179 127 92 61 21 12 6 1 360 360 1 358 357 357 0 5 6 10 15 19 18 16 18 11 13 16 14 14 13 7 4 355 344 322 290 262 251 249 247
242 289 253 204 217 243 173 196 254 128 109 116 104 72 37 25 11 5 2 2 4 3 5 7 9 6 6 12 15 16 23 25 23 16 17 19 15 10 3 4 4 2 347 338 320 297 275 258 259
243 281 328 295 300 336 176 225 233 115 107 102 108 105 61 25 12 12 8 10 7 6 9 10 10 10 10 15 17 21 26 33 28 26 27 24 16 7 360 2 1 358 355 353 339 307 291 282 269
263 234 352 300 286 269 238 202 152 119 133 150 155 156 253 37 41 28 23 20 15 15 14 12 16 19 18 18 21 28 27 30 30 27 28 25 14 8 8 10 9 4 1 357 343 339 332 310 288
280 320 287 255 296 289 262 223 201 185 208 202 197 213 225 149 101 68 52 37 29 24 15 17 25 24 20 21 25 31 30 29 29 29 27 22 16 14 13 16 13 11 10 5 1 356 352 348 335
184 217 228 250 259 279 299 284 112 167 178 187 195 189 174 146 141 114 80 74 53 35 27 31 27 27 24 23 27 30 29 30 31 32 27 22 20 20 19 18 17 16 14 9 8 6 2 357 351
219 225 220 248 261 238 265 268 111 136 157 176 193 181 167 161 161 157 144 114 80 52 43 44 36 31 28 25 27 28 27 29 29 27 23 21 21 21 17 15 17 17 13 9 8 6 3 358 352
Height
1496 1499 1502 1506 1508 1508 1501 1490 1484 1489 1491 1494 1496 1497 1498 1500 1505 1516 1516 1513 1513 1513 1512 1511 1512 1513 1514 1516 1518 1519 1521 1522 1524 1525 1526 1527 1528 1529 1530 1531 1532 1532 1533 1534 1535 1535 1536 1537 1538
1495 1500 1504 1505 1506 1506 1496 1487 1487 1490 1495 1498 1499 1500 1500 1503 1507 1511 1512 1513 1513 1513 1512 1512 1512 1513 1514 1516 1517 1519 1520 1522 1523 1525 1526 1527 1528 1529 1530 1531 1532 1532 1533 1534 1535 1536 1537 1538 1538
1496 1500 1504 1502 1500 1497 1492 1486 1488 1493 1497 1500 1501 1502 1504 1507 1510 1511 1512 1512 1512 1512 1512 1512 1512 1513 1514 1516 1517 1519 1520 1521 1523 1524 1525 1526 1528 1529 1530 1530 1531 1532 1533 1534 1535 1536 1537 1538 1539
1498 1501 1502 1501 1496 1489 1488 1489 1491 1495 1499 1501 1502 1504 1507 1510 1511 1512 1512 1512 1512 1512 1512 1512 1512 1513 1514 1515 1516 1518 1519 1521 1522 1523 1524 1526 1527 1528 1529 1530 1531 1532 1533 1534 1535 1536 1537 1538 1539
1498 1500 1500 1498 1492 1488 1489 1492 1494 1496 1499 1502 1503 1504 1508 1510 1511 1511 1511 1511 1511 1511 1511 1511 1512 1512 1513 1514 1515 1516 1518 1519 1521 1522 1523 1524 1525 1527 1528 1529 1530 1531 1532 1533 1534 1536 1537 1538 1539
1498 1496 1498 1496 1490 1489 1492 1495 1497 1498 1500 1503 1505 1506 1509 1510 1509 1510 1510 1510 1510 1510 1510 1511 1511 1511 1512 1513 1514 1515 1516 1517 1519 1520 1522 1523 1524 1525 1526 1527 1529 1530 1531 1532 1534 1535 1536 1537 1538
1497 1495 1492 1487 1489 1490 1493 1497 1499 1500 1502 1504 1506 1507 1509 1509 1509 1509 1509 1509 1509 1509 1509 1509 1510 1510 1510 1511 1512 1513 1514 1515 1517 1518 1519 1521 1522 1523 1524 1525 1527 1528 1529 1531 1532 1534 1535 1536 1537
1495 1494 1489 1487 1488 1492 1496 1499 1502 1503 1504 1506 1507 1508 1509 1509 1508 1508 1508 1509 1508 1508 1508 1508 1508 1508 1509 1509 1510 1511 1512 1513 1514 1515 1517 1518 1519 1521 1522 1523 1525 1526 1527 1529 1531 1532 1534 1535 1536
1495 1497 1492 1489 1489 1495 1497 1500 1504 1504 1505 1506 1507 1509 1510 1508 1508 1507 1507 1507 1507 1507 1506 1506 1506 1506 1506 1507 1508 1508 1509 1510 1511 1513 1514 1515 1516 1518 1519 1520 1522 1523 1525 1527 1528 1530 1532 1533 1534
1495 1496 1494 1493 1493 1496 1499 1502 1504 1505 1505 1506 1507 1508 1508 1507 1507 1507 1506 1506 1505 1505 1504 1504 1504 1504 1504 1504 1505 1506 1506 1507 1508 1509 1511 1512 1513 1514 1516 1517 1519 1521 1522 1524 1526 1527 1529 1531 1532
1494 1494 1495 1497 1498 1499 1502 1504 1505 1506 1506 1507 1507 1507 1507 1506 1506 1506 1505 1504 1504 1503 1502 1502 1501 1501 1501 1502 1502 1503 1503 1504 1505 1506 1508 1509 1510 1511 1513 1514 1516 1517 1519 1521 1522 1524 1526 1527 1529
1494 1496 1497 1500 1502 1503 1504 1505 1506 1506 1507 1506 1506 1506 1506 1505 1505 1504 1503 1502 1501 1500 1499 1499 1498 1498 1498 1498 1499 1500 1500 1501 1502 1503 1505 1506 1507 1508 1509 1511 1512 1513 1515 1517 1519 1520 1522 1524 1526
1495 1497 1500 1502 1504 1505 1506 1506 1506 1505 1505 1505 1505 1505 1504 1504 1503 1502 1501 1500 1498 1497 1496 1496 1495 1495 1495 1495 1495 1496 1497 1498 1499 1500 1501 1502 1503 1504 1506 1507 1508 1510 1511 1513 1515 1517 1519 1521 1523
1496 1498 1501 1503 1504 1505 1505 1505 1505 1503 1503 1504 1504 1503 1503 1502 1501 1499 1498 1497 1495 1494 1493 1492 1491 1491 1491 1491 1491 1492 1493 1494 1495 1495 1497 1498 1499 1500 1502 1503 1504 1506 1507 1509 1511 1513 1515 1517 1519
1497 1500 1501 1502 1503 1504 1505 1503 1501 1501 1501 1502 1501 1501 1500 1500 1499 1497 1496 1494 1492 1490 1489 1488 1488 1487 1487 1487 1487 1488 1488 1489 1490 1491 1492 1494 1495 1496 1498 1499 1500 1502 1503 1505 1507 1509 1511 1513 1515
1498 1500 1501 1500 1501 1503 1507 1503 1498 1498 1499 1500 1499 1499 1498 1498 1497 1495 1493 1491 1489 1487 1485 1485 1484 1483 1483 1483 1483 1483 1484 1485 1486 1487 1488 1490 1491 1492 1493 1494 1496 1498 1499 1501 1503 1504 1506 1508 1510
1497 1498 1497 1500 1500 1501 1503 1500 1497 1497 1498 1498 1498 1498 1497 1496 1494 1493 1491 1488 1486 1484 1482 1481 1480 1479 1479 1478 1478 1479 1479 1480 1481 1483 1484 1485 1487 1488 1489 1490 1491 1493 1495 1497 1498 1500 1501 1503 1505
1496 1493 1494 1497 1498 1499 1500 1498 1495 1495 1496 1496 1496 1496 1495 1494 1493 1491 1488 1486 1484 1482 1480 1478 1477 1476 1475 1474 1474 1474 1475 1476 1477 1478 1479 1480 1482 1483 1484 1485 1487 1489 1490 1492 1493 1495 1496 1498 1500
1492 1493 1495 1496 1496 1499 1498 1495 1492 1492 1493 1494 1494 1494 1494 1493 1491 1489 1486 1484 1481 1479 1477 1475 1474 1472 1471 1471 1470 1470 1471 1472 1473 1474 1475 1476 1477 1478 1480 1481 1482 1484 1485 1487 1489 1490 1491 1493 1496
1494 1495 1496 1496 1496 1497 1496 1493 1489 1489 1491 1493 1493 1493 1493 1491 1489 1487 1485 1482 1480 1477 1475 1473 1471 1470 1469 1468 1467 1468 1468 1469 1469 1470 1471 1472 1473 1474 1475 1476 1477 1479 1481 1482 1484 1486 1487 1488 1491
1496 1498 1499 1500 1498 1495 1497 1492 1486 1487 1489 1491 1492 1492 1492 1491 1489 1486 1484 1481 1479 1476 1474 1472 1470 1468 1467 1466 1465 1465 1466 1466 1466 1467 1467 1468 1469 1470 1471 1472 1473 1474 1475 1477 1479 1481 1482 1483 1485
1500 1498 1499 1500 1503 1503 1499 1503 1489 1485 1487 1489 1491 1491 1491 1490 1488 1486 1483 1480 1478 1475 1473 1471 1469 1467 1465 1464 1463 1463 1463 1463 1463 1464 1464 1465 1465 1466 1466 1467 1468 1470 1471 1472 1474 1476 1477 1478 1479
1500 1500 1500 1501 1503 1506 1500 1504 1492 1483 1486 1487 1489 1491 1490 1489 1487 1485 1482 1480 1477 1475 1472 1470 1468 1466 1464 1463 1462 1462 1461 1461 1461 1461 1462 1462 1462 1462 1463 1463 1464 1465 1466 1467 1469 1470 1471 1473 1474
1501 1501 1500 1501 1504 1507 1497 1500 1493 1485 1485 1486 1489 1490 1489 1488 1486 1484 1482 1479 1476 1474 1471 1469 1467 1465 1464 1463 1461 1461 1460 1460 1460 1460 1460 1460 1460 1460 1459 1460 1460 1461 1462 1463 1464 1465 1466 1467 1468
1502 1505 1505 1505 1506 1500 1489 1494 1492 1483 1483 1486 1488 1488 1488 1487 1485 1483 1481 1478 1476 1473 1471 1469 1467 1465 1464 1463 1461 1460 1460 1459 1459 1459 1458 1458 1457 1457 1456 1457 1457 1457 1458 1458 1459 1460 1460 1461 1462
1502 1504 1508 1506 1499 1494 1489 1493 1486 1482 1484 1485 1487 1487 1487 1486 1484 1483 1481 1478 1476 1474 1471 1469 1467 1466 1464 1463 1461 1461 1460 1459 1458 1458 1457 1457 1456 1456 1455 1454 1454 1455 1455 1455 1455 1456 1456 1456 1457
1501 1502 1501 1506 1500 1499 1490 1483 1482 1482 1484 1485 1486 1486 1485 1485 1483 1482 1480 1478 1476 1474 1472 1470 1468 1466 1465 1463 1462 1461 1460 1459 1458 1458 1457 1456 1456 1455 1454 1453 1453 1452 1452 1452 1452 1451 1451 1451 1451
1502 1501 1504 1505 1503 1497 1485 1481 1483 1483 1483 1484 1484 1484 1484 1483 1482 1481 1480 1478 1477 1475 1473 1471 1469 1467 1466 1464 1462 1461 1460 1459 1458 1457 1457 1456 1455 1454 1453 1452 1451 1450 1450 1449 1449 1447 1447 1446 1446
1502 1502 1501 1501 1500 1501 1494 1487 1476 1478 1479 1481 1482 1482 1482 1482 1481 1481 1479 1478 1477 1475 1474 1472 1470 1468 1466 1465 1463 1461 1460 1459 1458 1458 1456 1455 1454 1453 1451 1450 1449 1448 1447 1446 1445 1444 1442 1442 1441
1495 1496 1498 1501 1497 1494 1497 1491 1476 1476 1477 1478 1480 1480 1480 1480 1480 1480 1479 1478 1477 1476 1474 1472 1471 1469 1467 1466 1464 1462 1461 1460 1458 1457 1456 1455 1453 1452 1451 1449 1448 1446 1445 1444 1442 1440 1439 1438 1437